Showing default

KL-BETA B, 49060

Orbit data source: Space-Track

KL-BETA B, 49060 is a German payload satellite in LEO that was launched on Wed, 04 Aug 2021 UTC via a CHANG ZHENG 6 launch vehicle from the Taiyaun Space Center, China (TSC). Payload-class satellites include a variety of spacecraft equipped with specific instruments for various scientific and technological missions. These include communications satellites like Starlink; space stations such as the ISS; scientific satellites like the Hubble; Earth observation satellites from companies like Planet Labs, Umbra, and HawkEye 360; GPS; miniature CubeSats for education and research; and military/defense satellites.

Loading next visibility...
Identifier
49060, 2021-070B
Orbit
LEO
Country
Flag of DEDE / GER
Related business
Manufacturer
IMI/CAS
Mission
Operational Commercial Communications
Bus & Motor
KLA, Unknown motor
Mass
~100 kg wet, ~100 kg dry
Launch date (UTC)
2021-08-04 (5 years ago)
Launch vehicle
CHANG ZHENG 6
Launch site
Taiyaun Space Center, China (TSC)
Object type
Payload
Rocket body
Debris
Shape & HBR
Box + 1 Pan, 1.5 m
Radar Cross Section
0.900 m², Large (>1 m²)

Expand to show TLE details & history
Last TLE update: 22 hours ago

TLE from 22 hours ago
0 KL-BETA B
1 49060U 21070B   26172.53414446  .00000121  00000-0  79998-4 0  9998
2 49060  89.0039 218.0132 0007198 101.0744 259.1242 13.94721669248578
Epoch: 2026-06-21T12:49Z
TLE epoch observation values (Epoch: 2026-06-21T12:49:10.081Z)
Latitude
0.00002°
Longitude
115.98816°
Altitude
916.141 km
Speed
7.393 km/s
True Right ascension
14h 32m 03s
True Declination
0° 00' 00"
Sunlit
Object was in full shadow at epoch
Visualization orbit readout
Latitude
Unknown
Longitude
Unknown
Altitude
Unknown
Speed
Unknown
Apparent Right ascension
Unknown
Apparent Declination
Unknown
Sunlit
N/A
Visualization observer readout
Local Sidereal Time
21:25:39
Azimuth
Unknown
Elevation
Unknown
Doppler factor
Unknown
Orbital elements
Apogee altitude
914.364 km
Perigee altitude
903.873 km
Semi-major axis
7,287.255 km
Eccentricity
0.00072
Inclination
89.0039°
RAAN
218.0132°
Arg. of periapsis
101.0744°
True anomaly
259.04321°
Mean anomaly
259.1242°
Eccentric anomaly
259.0837°
Mean motion
3.48897 °/min
Orbital period
103.18 mins
BSTAR
0.000079998
Loading maneuver chart data...
Computing Atmospheric mass density...
Loading historical data...
Loading historical data...
Loading historical data...
Loading historical data...
Loading historical data...
Loading historical data...
Loading historical data...
Other satellites on launch #70 in the year 2021 (2021-08-04 UTC)

Documentation

Showing up to 5 results
|